Weather History for Lakeland Region, FL

Change the Weather History Date:

Wednesday, May 1, 2013

  Actual Average Record
Temperature  
Mean Temperature 72 °F -  
Max Temperature 77 °F 82 °F 91 °F (1990)
Min Temperature 66 °F 62 °F 51 °F (1999)
Cooling Degree Days 6    
Growing Degree Days 22 (Base 50)    
Moisture  
Dew Point 68 °F    
Average Humidity 92    
Maximum Humidity 100    
Minimum Humidity 74    
Precipitation  
Precipitation 0.00 in - - ()
Sea Level Pressure  
Sea Level Pressure 29.98 in    
Wind  
Wind Speed 5 mph (East)    
Max Wind Speed 12 mph    
Max Gust Speed -    
Visibility 9 miles    
Events Rain    
Averages and records for this station are not official NWS values.
T = Trace of Precipitation, MM = Missing Value Source: NWS Daily Summary

Daily Weather History Graph

Daily Weather History Graph

Search for Another Location

Airport:

Trip Planner

Search our weather history database for the weather conditions in past years. The results will help you decide how hot, cold, wet, or windy it might be!

Date:

Astronomy

May. 01, 2013 Rise Set
Actual Time 6:47 AM EDT 8:02 PM EDT
Civil Twilight 6:23 AM EDT 8:27 PM EDT
Nautical Twilight 5:53 AM EDT 8:56 PM EDT
Astronomical Twilight 5:23 AM EDT 9:27 PM EDT
Moon 1:09 AM EDT (5/1) 12:24 PM EDT (5/1)
Length of Visible Light 14h 04m
Length of Day
13h 14m
Waning Gibbous, 59% of the Moon is Illuminated
May 1
Waning Gibbous
May 2
Last Quarter
May 9
New
May 18
First Quarter
May 25
Full

Hourly Weather History & Observations

Time (EDT) Temp. Dew Point Humidity Pressure Visibility Wind Dir Wind Speed Gust Speed Precip Events Conditions
12:15 AM 69.8 °F 68.0 °F 94% 30.01 in 10.0 mi NE 3.5 mph - N/A   Clear
12:35 AM 69.8 °F 68.0 °F 94% 30.00 in 10.0 mi Calm Calm - N/A   Clear
12:55 AM 69.8 °F 66.2 °F 88% 30.00 in 10.0 mi Calm Calm - N/A   Clear
1:15 AM 69.8 °F 66.2 °F 88% 30.00 in 10.0 mi East 4.6 mph - N/A   Clear
1:35 AM 68.0 °F 66.2 °F 94% 29.99 in 10.0 mi ESE 4.6 mph - N/A   Clear
1:55 AM 69.8 °F 66.2 °F 88% 29.98 in 10.0 mi East 4.6 mph - N/A   Clear
2:15 AM 69.8 °F 68.0 °F 94% 29.98 in 10.0 mi East 4.6 mph - N/A   Clear
2:35 AM 69.8 °F 68.0 °F 94% 29.97 in 10.0 mi East 5.8 mph - N/A   Clear
2:55 AM 69.8 °F 68.0 °F 94% 29.96 in 10.0 mi East 9.2 mph - N/A   Clear
3:15 AM 69.8 °F 68.0 °F 94% 29.96 in 7.0 mi ENE 9.2 mph - N/A   Mostly Cloudy
3:35 AM 69.8 °F 68.0 °F 94% 29.96 in 7.0 mi East 6.9 mph - N/A   Overcast
3:55 AM 69.8 °F 68.0 °F 94% 29.96 in 10.0 mi East 3.5 mph - N/A   Scattered Clouds
4:15 AM 69.8 °F 68.0 °F 94% 29.96 in 10.0 mi East 4.6 mph - N/A   Clear
4:35 AM 69.8 °F 68.0 °F 94% 29.95 in 10.0 mi ENE 6.9 mph - N/A   Clear
4:55 AM 69.8 °F 68.0 °F 94% 29.95 in 10.0 mi ENE 6.9 mph - N/A   Clear
5:15 AM 69.8 °F 68.0 °F 94% 29.95 in 10.0 mi ENE 4.6 mph - N/A   Clear
5:35 AM 69.8 °F 68.0 °F 94% 29.96 in 10.0 mi East 4.6 mph - N/A   Scattered Clouds
5:50 AM 71.6 °F 69.8 °F 94% 29.96 in 7.0 mi East 5.8 mph - N/A   Overcast
6:15 AM 69.8 °F 68.0 °F 94% 29.96 in 10.0 mi East 6.9 mph - N/A   Clear
6:35 AM 69.8 °F 68.0 °F 94% 29.97 in 10.0 mi East 6.9 mph - N/A   Scattered Clouds
9:51 AM 73.4 °F 69.8 °F 88% 30.01 in 10.0 mi East 8.1 mph - N/A   Overcast
10:54 AM 73.4 °F 69.8 °F 88% 30.03 in 10.0 mi ESE 6.9 mph - N/A   Overcast
11:50 AM 75.2 °F 69.8 °F 83% 30.03 in 12.0 mi East 6.9 mph - N/A   Overcast
12:54 PM 75.2 °F 71.6 °F 89% 30.01 in 12.0 mi East 5.8 mph - N/A   Overcast
1:52 PM 75.2 °F 69.8 °F 83% 30.00 in 12.0 mi East 5.8 mph - N/A   Overcast
2:50 PM 75.2 °F 68.0 °F 78% 29.98 in 10.0 mi East 11.5 mph - N/A Rain Light Rain
3:50 PM 77.0 °F 68.0 °F 74% 29.97 in 10.0 mi East 9.2 mph - N/A Rain Light Rain
5:50 PM 66.2 °F 66.2 °F 100% 29.98 in 5.0 mi ESE 8.1 mph - N/A Rain Rain
6:51 PM 66.2 °F 64.4 °F 94% 29.97 in 5.0 mi ESE 8.1 mph - N/A Rain Light Rain
7:51 PM 66.2 °F 64.4 °F 94% 29.97 in 7.0 mi Calm Calm - N/A Rain Light Rain
8:54 PM 68.0 °F 66.2 °F 94% 29.98 in 10.0 mi Calm Calm - N/A Rain Light Rain
9:50 PM 68.0 °F 66.2 °F 94% 29.99 in 7.0 mi Calm Calm - N/A Rain Rain
10:55 PM 68.0 °F 66.2 °F 94% 29.99 in 5.0 mi Calm Calm - N/A   Drizzle
11:35 PM 68.0 °F 66.2 °F 94% 29.99 in 10.0 mi Calm Calm - N/A   Overcast
11:55 PM 68.0 °F 66.2 °F 94% 29.99 in 10.0 mi ENE 3.5 mph - N/A   Overcast